Wind_Speed
9 9 8 12 15 20 25 27 28 35 40 40 42 43 43 43 41 38 35 32 30 30 29 31 34 36 36 36 34 30 28 29 28 27 27 25 24 24 22 22 21 19 18 19
5 4 7 9 10 12 16 19 21 28 36 38 39 39 39 36 32 31 30 30 30 31 32 35 36 36 36 35 30 27 28 29 27 26 25 23 21 19 19 18 16 14 13 14
1 6 5 5 5 5 8 12 17 21 25 26 29 28 30 30 29 30 30 31 32 34 36 37 37 37 36 32 30 29 29 28 25 24 24 21 18 16 16 17 16 15 14 15
4 5 5 6 8 7 8 13 14 16 17 17 21 21 21 27 27 29 31 32 34 37 38 38 37 35 33 30 30 31 30 28 26 25 23 21 20 19 20 21 21 20 19 18
7 7 8 8 10 9 11 13 13 14 15 15 17 18 16 24 26 28 32 34 36 38 38 35 32 31 30 31 33 33 30 28 26 26 26 26 25 26 26 27 28 27 25 22
5 4 6 7 8 8 11 11 11 12 12 11 14 13 12 19 22 22 24 25 27 30 31 30 29 28 29 32 33 31 29 28 26 27 28 29 29 30 31 32 33 32 29 24
6 7 8 7 8 11 13 12 10 9 9 11 16 13 16 19 18 20 21 23 25 26 27 28 26 27 30 32 31 30 30 30 30 30 31 31 32 32 31 31 31 30 28 25
5 8 10 7 7 9 10 10 9 9 10 11 14 13 19 18 18 18 19 21 23 25 26 28 30 30 30 31 31 32 32 33 34 34 34 34 34 33 31 30 29 29 28 27
7 9 11 8 7 8 8 9 10 11 12 12 11 13 21 19 21 21 22 22 25 27 29 31 33 34 33 33 34 35 36 37 38 38 38 37 36 34 33 32 30 29 28 26
7 7 9 8 7 8 10 11 12 12 13 13 14 17 20 19 22 25 28 29 29 32 34 36 37 39 41 42 43 43 43 44 45 45 44 42 41 38 36 36 35 33 29 27
5 6 7 10 10 13 14 15 15 17 18 19 19 22 23 25 26 28 29 32 35 37 40 42 44 44 45 47 49 49 49 49 50 51 50 49 48 46 42 40 38 35 31 29
6 8 9 12 14 16 18 19 20 21 23 25 27 31 29 30 32 33 34 35 37 40 42 44 47 48 50 51 53 55 56 56 56 56 56 56 55 53 49 46 44 40 36 34
11 13 14 15 20 23 23 23 24 25 27 29 31 36 35 36 37 38 39 40 41 43 45 47 49 51 53 55 56 59 61 62 62 61 61 61 59 57 55 52 49 45 42 40
14 15 17 18 20 24 26 27 27 28 29 31 33 39 39 41 42 42 42 43 44 45 46 48 51 53 56 58 60 62 67 70 70 69 67 66 65 63 62 60 56 49 45 44
16 17 19 21 22 24 26 27 28 30 32 33 36 39 42 44 45 45 45 46 47 48 51 54 56 58 60 65 69 70 72 73 72 73 75 75 75 75 72 67 61 56 55 52
19 19 20 22 24 27 29 30 31 32 33 35 37 40 43 46 49 50 52 56 58 60 62 64 66 68 68 70 74 77 77 76 75 75 75 72 72 72 70 69 69 70 68 63
20 21 22 25 27 30 31 30 32 33 34 36 40 46 50 53 56 58 61 65 68 71 73 75 76 77 77 78 79 81 84 87 89 89 86 83 80 78 79 80 80 81 77 69
21 22 24 25 26 26 28 30 33 35 37 41 47 52 55 59 63 66 70 74 78 80 82 83 82 80 78 75 72 71 71 72 74 76 78 81 84 86 86 86 84 81 76 69
22 23 23 23 25 30 30 33 37 41 44 48 52 56 60 64 68 73 77 81 83 82 79 74 68 62 55 48 43 40 40 42 44 46 49 52 56 61 66 69 70 69 68 65
24 23 24 26 28 31 35 37 41 45 49 54 57 61 66 71 75 77 79 79 74 66 57 50 42 37 34 34 36 38 40 40 39 39 40 39 38 38 42 46 51 55 57 57
24 24 25 27 31 34 37 41 44 48 53 56 61 66 71 75 77 76 69 58 49 41 35 32 32 34 37 41 44 46 46 45 44 44 43 41 37 34 34 36 39 44 49 53
26 27 28 31 34 39 42 45 49 53 57 61 66 71 75 76 71 59 48 40 35 32 33 36 39 43 46 48 49 49 49 49 49 48 46 44 39 34 32 31 30 31 34 40
27 29 32 34 37 41 46 50 54 57 60 65 70 75 76 70 56 43 36 34 35 38 41 45 47 49 50 51 52 51 51 52 53 52 50 47 44 38 33 29 26 25 26 27
30 32 35 37 40 44 48 52 55 59 64 70 75 77 72 57 44 37 36 38 41 44 46 49 50 50 49 50 51 53 54 55 56 55 52 49 46 43 37 32 28 26 26 27
35 37 40 43 46 48 51 55 59 63 69 74 77 73 62 48 40 38 40 43 47 49 51 53 53 51 50 49 50 51 53 55 54 51 48 46 45 43 40 36 31 29 30 30
36 39 42 45 48 50 54 58 62 67 71 76 76 67 51 43 40 42 45 49 52 53 55 54 53 53 51 50 50 50 51 51 49 45 41 40 40 42 41 37 34 32 31 33
Wind_Direction
296 292 280 268 259 247 243 240 242 247 251 253 255 259 263 266 268 269 269 269 268 269 270 275 281 287 292 295 293 288 285 284 283 284 286 287 285 284 284 282 281 282 286 290
4 320 286 287 280 266 253 247 248 254 254 256 260 265 269 272 269 266 265 265 266 267 271 276 283 288 293 293 289 284 285 288 287 286 286 284 281 277 272 270 272 279 288 295
194 269 292 305 312 288 276 263 261 265 270 274 277 277 281 277 270 267 266 267 268 272 277 281 284 288 290 289 285 283 287 288 285 283 284 281 279 275 272 272 274 276 287 296
278 275 282 294 294 291 287 274 273 275 275 272 273 272 270 280 279 273 271 271 274 277 278 279 282 284 286 285 286 288 290 288 283 283 286 286 285 282 279 278 275 276 284 293
293 285 282 283 278 284 283 288 285 286 287 285 281 282 279 279 278 273 269 269 270 272 273 274 275 278 281 284 289 291 292 288 283 284 287 287 286 283 280 278 278 279 283 288
342 318 291 279 277 286 300 298 293 296 302 298 285 288 289 281 282 276 271 268 265 267 266 265 269 276 281 285 288 290 291 290 287 286 287 287 287 286 284 283 282 282 282 285
359 349 333 315 293 293 301 306 308 307 298 290 295 297 285 291 293 286 279 274 272 272 267 265 271 278 281 282 283 286 289 290 288 287 285 286 287 286 284 282 279 278 278 281
322 317 319 321 303 295 299 305 300 290 287 289 299 298 293 301 299 294 287 281 278 277 276 276 278 279 281 282 284 286 288 289 289 286 284 284 285 284 282 279 276 275 278 283
292 288 309 317 306 304 308 308 302 302 304 309 297 295 296 301 301 298 294 290 286 282 281 280 281 280 278 278 279 281 283 284 284 282 281 281 282 283 282 279 276 277 282 288
298 287 298 312 312 310 311 311 307 302 296 293 292 295 284 292 292 292 290 288 285 282 281 280 280 278 277 276 277 278 279 280 281 281 281 281 280 279 280 279 277 277 281 287
302 300 302 313 320 322 322 316 309 302 300 299 297 289 298 297 294 290 286 283 282 282 281 280 279 278 276 275 276 277 276 276 277 279 280 281 282 281 280 280 277 275 278 287
336 328 317 317 321 323 321 317 313 309 308 307 307 300 307 302 299 295 290 285 282 279 277 276 276 276 275 274 274 274 274 273 272 273 275 277 279 280 279 278 276 272 275 286
336 330 328 329 322 324 320 317 314 311 310 309 308 302 308 303 300 297 294 290 287 285 283 281 279 278 277 277 276 276 275 272 270 270 270 272 274 275 275 275 274 271 273 281
328 326 322 319 311 312 313 314 315 313 310 307 305 302 305 303 301 299 296 293 290 288 287 287 286 284 283 282 282 282 280 274 270 268 268 269 271 272 271 271 269 268 272 278
326 323 319 316 313 312 311 312 311 310 309 308 306 304 304 304 304 303 301 298 296 294 293 291 290 289 287 282 278 277 275 268 263 260 260 261 264 266 264 261 261 266 275 279
331 326 322 319 317 316 317 319 315 313 311 310 308 306 306 306 305 305 304 302 299 297 294 291 288 285 282 279 275 271 268 264 267 271 267 261 259 258 256 255 259 269 276 277
329 325 323 323 322 319 321 321 315 313 313 313 311 310 309 308 307 307 305 301 299 297 294 291 289 286 284 281 278 276 273 271 272 273 272 268 264 261 261 262 264 269 272 273
328 326 325 325 322 322 322 317 314 314 314 312 310 309 310 310 310 309 306 303 300 297 294 292 291 291 290 289 288 286 284 283 282 281 279 276 272 269 267 266 266 267 268 268
331 329 328 329 327 322 324 320 319 318 317 314 313 313 314 313 311 310 307 303 300 299 299 299 298 298 297 296 295 296 298 297 296 294 290 286 281 276 271 267 265 264 262 261
335 333 332 331 328 326 324 323 322 320 318 318 318 317 316 314 312 310 306 305 305 305 304 303 301 300 300 301 302 302 303 301 299 298 298 298 297 291 281 271 260 252 248 247
335 333 330 328 324 323 323 323 321 321 320 319 319 319 318 317 315 314 313 314 314 313 311 309 307 304 302 301 300 300 298 296 293 291 290 290 293 293 287 279 266 254 244 238
337 333 330 328 326 326 324 323 324 323 323 323 323 323 322 321 319 319 320 321 319 316 312 309 307 304 303 302 300 298 295 292 288 286 285 283 283 284 284 280 269 254 245 239
336 332 330 329 328 325 326 327 327 326 326 325 326 327 325 323 322 322 322 321 318 316 313 311 308 306 304 302 300 297 295 292 288 284 280 276 273 272 273 272 264 249 239 236
334 331 329 328 326 327 328 327 326 327 329 330 330 329 326 324 324 324 323 322 321 319 317 314 311 308 304 301 298 297 296 295 292 286 280 273 266 261 259 260 256 245 237 233
334 332 330 328 327 329 330 330 330 333 333 332 333 330 327 325 325 324 324 324 323 322 320 318 316 312 308 304 300 299 299 299 296 290 279 270 259 251 248 248 249 243 236 231
335 333 332 332 332 333 334 334 334 335 334 335 335 332 327 324 324 323 324 325 324 323 322 320 319 315 311 307 304 302 302 302 299 291 280 266 252 241 237 238 239 238 234 228
Height
5869 5870 5871 5870 5870 5872 5874 5877 5879 5877 5878 5881 5881 5881 5881 5881 5881 5880 5880 5879 5879 5879 5878 5876 5874 5871 5868 5864 5859 5855 5852 5849 5847 5846 5844 5843 5842 5840 5839 5837 5836 5835 5833 5831
5869 5870 5868 5868 5868 5870 5871 5874 5875 5873 5872 5874 5874 5874 5874 5874 5874 5874 5874 5874 5874 5873 5872 5870 5867 5864 5860 5856 5852 5849 5846 5844 5842 5840 5838 5837 5836 5835 5833 5832 5830 5829 5827 5826
5871 5869 5867 5867 5868 5869 5870 5870 5870 5869 5869 5870 5869 5870 5868 5867 5868 5869 5869 5868 5867 5866 5864 5861 5858 5855 5852 5848 5845 5843 5841 5838 5836 5834 5832 5830 5829 5828 5828 5827 5825 5824 5822 5820
5868 5867 5866 5867 5867 5866 5868 5866 5865 5864 5865 5866 5865 5865 5867 5862 5861 5861 5861 5860 5859 5857 5854 5851 5849 5846 5843 5841 5839 5837 5834 5832 5830 5827 5825 5824 5823 5823 5822 5821 5819 5818 5816 5814
5867 5866 5865 5865 5864 5863 5863 5862 5861 5860 5860 5860 5859 5859 5861 5856 5853 5853 5852 5851 5850 5847 5844 5842 5839 5837 5835 5833 5831 5829 5827 5824 5823 5822 5820 5819 5818 5817 5816 5814 5813 5811 5809 5807
5865 5864 5863 5863 5862 5861 5860 5860 5859 5858 5858 5858 5855 5856 5855 5850 5847 5846 5844 5842 5840 5837 5835 5832 5831 5830 5829 5826 5824 5822 5819 5818 5817 5816 5814 5813 5811 5810 5809 5807 5805 5804 5802 5800
5866 5865 5863 5862 5861 5861 5859 5859 5859 5859 5859 5857 5852 5851 5849 5845 5843 5841 5839 5837 5834 5832 5829 5825 5824 5824 5822 5819 5817 5815 5813 5811 5810 5809 5808 5807 5805 5803 5801 5800 5798 5796 5795 5793
5868 5867 5863 5861 5860 5858 5857 5856 5857 5857 5856 5854 5850 5847 5842 5841 5838 5836 5834 5831 5829 5827 5825 5822 5819 5817 5815 5813 5811 5809 5807 5805 5802 5801 5800 5799 5797 5794 5793 5791 5790 5788 5787 5784
5867 5865 5862 5859 5857 5856 5855 5854 5853 5851 5850 5848 5848 5843 5837 5836 5833 5830 5828 5826 5824 5821 5819 5816 5813 5810 5808 5805 5803 5800 5798 5796 5794 5791 5790 5789 5787 5785 5783 5782 5780 5779 5777 5774
5863 5863 5861 5858 5857 5855 5854 5851 5850 5848 5846 5846 5844 5841 5838 5832 5829 5826 5822 5820 5817 5815 5811 5808 5805 5801 5798 5795 5793 5790 5788 5785 5783 5780 5779 5778 5776 5775 5774 5772 5771 5769 5767 5765
5862 5861 5860 5857 5855 5853 5851 5848 5846 5844 5842 5839 5837 5837 5831 5827 5824 5821 5817 5812 5808 5804 5801 5797 5793 5790 5787 5784 5780 5778 5775 5772 5769 5767 5765 5763 5763 5763 5762 5761 5759 5757 5755 5754
5860 5859 5857 5855 5852 5850 5847 5843 5841 5839 5835 5832 5829 5828 5824 5819 5815 5811 5807 5803 5798 5794 5790 5785 5781 5777 5773 5770 5766 5763 5760 5757 5754 5751 5749 5747 5746 5746 5747 5746 5745 5744 5742 5741
5858 5857 5854 5852 5850 5845 5842 5839 5836 5833 5829 5825 5822 5819 5814 5809 5804 5800 5795 5791 5786 5781 5776 5771 5767 5762 5758 5754 5750 5746 5743 5739 5736 5732 5730 5728 5727 5727 5728 5729 5730 5729 5729 5729
5855 5853 5852 5850 5846 5842 5837 5834 5830 5827 5823 5820 5816 5808 5803 5797 5792 5787 5782 5777 5772 5767 5761 5756 5750 5745 5740 5735 5730 5726 5721 5717 5714 5711 5709 5708 5707 5707 5709 5711 5713 5713 5714 5715
5853 5851 5847 5844 5840 5836 5832 5829 5825 5821 5817 5812 5807 5800 5793 5785 5779 5773 5768 5762 5757 5751 5745 5739 5733 5727 5721 5716 5710 5705 5700 5695 5691 5690 5689 5687 5686 5686 5687 5689 5692 5694 5697 5699
5848 5846 5843 5839 5835 5830 5827 5823 5818 5814 5809 5803 5797 5791 5784 5776 5769 5762 5755 5748 5741 5734 5727 5720 5713 5706 5701 5695 5689 5684 5679 5675 5672 5670 5668 5666 5665 5664 5665 5666 5669 5673 5678 5682
5844 5841 5838 5835 5830 5825 5820 5817 5810 5806 5801 5795 5787 5781 5772 5764 5756 5748 5740 5731 5722 5713 5704 5694 5686 5679 5673 5667 5662 5657 5653 5649 5645 5642 5642 5641 5641 5642 5644 5645 5647 5651 5655 5661
5840 5837 5834 5830 5826 5821 5819 5811 5805 5799 5793 5786 5778 5769 5759 5750 5740 5731 5720 5708 5698 5687 5676 5666 5657 5650 5644 5639 5634 5629 5626 5620 5616 5612 5610 5610 5610 5612 5614 5617 5620 5625 5632 5638
5836 5833 5829 5825 5820 5814 5811 5804 5796 5788 5781 5773 5764 5755 5745 5734 5724 5714 5698 5684 5671 5659 5648 5639 5631 5625 5620 5615 5611 5608 5605 5600 5595 5591 5588 5586 5584 5584 5585 5588 5592 5597 5605 5613
5832 5828 5824 5819 5815 5810 5803 5795 5786 5779 5770 5759 5750 5740 5729 5717 5705 5696 5678 5661 5647 5636 5627 5619 5614 5609 5605 5601 5598 5595 5592 5588 5584 5579 5576 5573 5569 5567 5565 5564 5566 5569 5576 5586
5829 5825 5821 5815 5809 5802 5796 5787 5780 5772 5763 5751 5739 5727 5713 5699 5683 5668 5654 5641 5629 5621 5614 5609 5604 5599 5595 5590 5586 5581 5578 5574 5570 5566 5563 5561 5558 5555 5552 5550 5549 5550 5554 5561
5825 5820 5815 5809 5803 5796 5786 5778 5770 5760 5748 5736 5724 5710 5695 5679 5662 5647 5635 5626 5619 5612 5607 5601 5595 5590 5583 5576 5570 5566 5561 5557 5552 5549 5548 5547 5546 5544 5542 5539 5538 5538 5540 5545
5820 5815 5808 5804 5798 5788 5777 5767 5758 5747 5736 5723 5709 5693 5676 5659 5646 5635 5626 5619 5611 5604 5597 5590 5583 5576 5569 5561 5554 5548 5543 5537 5533 5530 5529 5529 5529 5530 5530 5530 5530 5530 5532 5536
5815 5809 5803 5795 5788 5780 5770 5760 5749 5737 5723 5708 5691 5675 5658 5644 5634 5626 5619 5611 5604 5595 5587 5578 5569 5561 5553 5545 5537 5530 5523 5517 5511 5507 5506 5507 5509 5513 5517 5519 5520 5523 5526 5529
5809 5802 5795 5787 5778 5770 5761 5749 5736 5724 5709 5694 5677 5659 5643 5632 5625 5617 5610 5602 5593 5584 5574 5563 5553 5544 5536 5528 5520 5512 5503 5495 5488 5484 5482 5483 5487 5494 5501 5506 5510 5514 5518 5522
5803 5796 5788 5781 5771 5761 5750 5738 5725 5712 5698 5682 5665 5648 5634 5623 5616 5609 5600 5591 5581 5571 5560 5549 5539 5529 5519 5511 5503 5494 5485 5476 5468 5463 5461 5462 5467 5475 5484 5492 5498 5504 5509 5514